www.pogodaiklimat.ru

Погода и климат >> Архив погоды >> Испания >> Сан-Себастьян


ПОГОДА в Сан-Себастьяне

  • Прогноз погоды в Сан-Себастьяне
  • Монитор погоды в Сан-Себастьяне

АРХИВ ПОГОДЫ в Сан-Себастьяне

Время (UTC), дата Ветер
(напр.,м/с)
 
Видим.   Явления Облачность Т
(С)
Тd
(С)
f
(%)
Тe
(С)
Тes
(С)
Комфортность P
(гПа)
Po
(гПа)
Тmin
(С)
Tmax
(С)
R
(мм)
R24
(мм)
S
(см)
12 17.06 С 1 15 км 1/0
[Ci fib]
+20.6 +17.2 81 +25 +48 комфорт 1015.5 985.7
15 17.06 С 2 15 км 3/0
[Ci fib]
+23.1 +22.1 94 +31 +43 очень
душно
1013.0 983.6
18 17.06 З 7 300 м туман ?/? +17.3 +16.7 96 +16 +16 1012.9 982.8 +24.5
21 17.06 СЗ 4 500 м туман ?/? +15.2 +15.0 99 +14 +14 1014.3 984.0
00 18.06 СЗ 2 12 км {туман} 10/10 100 м
[St]
+15.2 +14.9 98 +15 +15 1014.0 983.7
03 18.06 Ю 4 15 км {туман} 6/6 200 м
[St Ci fib]
+15.2 +14.9 98 +14 +14 1012.5 982.2
06 18.06 Ю 2 20 км 3/0
[Ac trans Ci fib]
+17.2 +15.2 88 +17 +19 1010.7 980.7 +14.9
09 18.06 Ю 3 25 км 3/0
[Ac trans Ci fib]
+24.9 +13.8 50 +27 +35 жарко 1010.0 980.7
12 18.06 Ю 5 25 км 3/0
[Ac trans Ci fib]
+30.4 +9.8 28 +30 +40 жарко 1008.2 979.5
15 18.06 С 4 25 км 4/0
[Ac trans]
+28.9 +12.8 37 +30 +37 жарко 1006.4 977.6
18 18.06 З 6 200 м туман ?/? +16.1 +15.8 98 +15 +15 1010.3 980.2 +32.6
21 18.06 Ю 3 10 км 10/9 100 м
[St]
+15.6 +15.0 96 +15 +15 1011.3 981.1
00 19.06 Ю 3 4000 м дымка 10/10 50 м
[St]
+14.9 +14.6 98 +14 +14 1012.1 981.8
03 19.06 В 1 20 км 6/0
[Ac trans]
+16.2 +14.0 87 +18 +18 1012.5 982.3
06 19.06 ЮВ 2 13 км 9/0 2000 м
[Ac As]
+15.7 +13.9 89 +16 +16 1012.7 982.5 +14.5
09 19.06 ЮВ 2 25 км 8/0
[Ac und Ci fib]
+21.2 +15.5 70 +24 +31 комфорт 1012.4 982.7
12 19.06 С 5 25 км 9/1 600 м
[Cu hum Ac As Ci fib]
+19.0 +13.8 72 +20 +26 1013.8 983.9
15 19.06 С 4 25 км 8/1 600 м
[Cu hum Ac As Ci sp]
+19.2 +14.5 74 +21 +26 комфорт 1015.2 985.2
18 19.06 С 2 25 км 10/1 300 м
[Cu hum Ac As]
+17.2 +13.7 80 +18 +18 1015.7 985.5 +22.8
21 19.06 СВ 1 18 км 10/4 300 м
[Sc Ac As]
+16.8 +14.4 86 +18 +18 1017.1 986.8
00 20.06 З 4 15 км 10/10 300 м
[St]
+16.0 +15.4 96 +15 +15 1017.4 987.1
03 20.06 СЗ 4 9000 м дымка {дождь} 10/10 300 м
[St]
+15.0 +14.7 98 +14 +14 1017.6 987.1
06 20.06 С 3 1500 м слаб. морось {дождь, туман} 10/10 100 м
[Frnb]
+14.6 +14.6 100 +14 +14 1017.6 987.1 +14.6 3
09 20.06 СЗ 3 6000 м дымка 10/10 300 м
[Cu Sc]
+15.4 +14.8 96 +15 +15 1017.8 987.4
12 20.06 С 3 9000 м дымка {туман} 10/10 300 м
[Cu Sc]
+16.0 +14.7 92 +16 +16 1017.8 987.4 0.1
15 20.06 СЗ 3 18 км 10/10 200 м
[Cu Sc]
+16.1 +14.6 91 +16 +16 1017.6 987.3
18 20.06 С 3 15 км 10/9 200 м
[Cu Sc Ac As]
+15.7 +14.6 93 +15 +15 1017.4 987.0 +18.5 0.1
21 20.06 С 4 15 км слаб. дождь 10/10 200 м
[Cu Sc]
+15.2 +14.4 95 +14 +14 1018.0 987.5
00 21.06 С 4 15 км {дождь} 10/10 200 м
[Cu Sc]
+14.9 +14.4 97 +14 +14 1018.6 988.1 0.4
03 21.06 СЗ 3 200 м слаб. дождь ?/? +13.4 +13.1 98 +12 +12 1018.5 987.8
06 21.06 СЗ 6 100 м дождь ?/? +11.6 +11.6 100 +8 +8 1019.4 988.5 +11.4 14
09 21.06 З 2 10 км слаб. дождь 10/10 100 м
[St]
+13.5 +13.3 99 +13 +13 1020.4 989.7
12 21.06 СЗ 4 20 км {дождь} 8/3 300 м
[Cu Sc Ac As Ci sp]
+15.4 +12.0 80 +15 +21 1020.8 990.3 5
15 21.06 СЗ 3 50 км 5/1 600 м
[Cu med, cong Ac As Ci sp]
+17.3 +11.3 68 +17 +25 1020.5 990.2
18 21.06 СЗ 4 50 км 3/3 600 м
[Cu hum Cs]
+16.4 +12.2 76 +16 +17 1020.7 990.3 +18.0 1
21 21.06 С 1 50 км 1/1 600 м
[Cu hum Ci fib]
+14.2 +11.5 84 +15 +15 1021.4 990.7
00 22.06 Ю 2 50 км ясно +12.8 +11.7 93 +12 +12 1020.7 989.9
03 22.06 ЮВ 2 50 км 1/0
[Ci fib]
+11.5 +10.4 93 +10 +10 1019.4 988.5
06 22.06 Ю 3 50 км 4/0
[Ci fib]
+12.1 +10.3 89 +11 +12 1018.5 987.7 +11.0
09 22.06 ЮВ 2 40 км 6/0
[Cs]
+17.5 +12.8 74 +18 +28 1017.1 986.9
12 22.06 СВ 3 50 км 9/0
[Ac lent Ci fib]
+20.9 +15.2 70 +24 +37 комфорт 1015.5 985.7
15 22.06 СВ 3 55 км 6/0
[Ac und Ci fib]
+23.2 +16.7 67 +28 +35 душно 1013.0 983.5
18 22.06 В 2 55 км 6/0
[Ac As Ci fib]
+24.4 +17.9 67 +29 +30 душно 1011.5 982.2 +26.0
21 22.06 ЮВ 2 50 км 5/0
[Ci fib]
+21.5 +16.9 75 +25 +25 комфорт 1011.7 982.1
00 23.06 ЮВ 4 50 км 1/0
[Ci fib]
+20.6 +17.4 82 +24 +24 комфорт 1010.6 981.0
03 23.06 Ю 10 45 км 5/0
[Ac lent Ci fib]
+24.9 +15.2 55 +28 +28 жарко 1008.3 979.1
06 23.06 Ю 8 35 км 9/0 2000 м
[Ac lent]
+24.4 +12.0 46 +26 +26 жарко 1009.0 979.7 +20.5
09 23.06 35 км 8/0
[Cs]
+21.2 +16.0 72 1011.7 982.1
12 23.06 СЗ 4 35 км 8/0
[Ac lent Cs]
+21.2 +15.3 69 +24 +33 комфорт 1011.9 982.2
15 23.06 СЗ 4 25 км 9/1 1000 м
[Cu hum Ac und Cs]
+19.2 +15.7 80 +21 +25 комфорт 1012.8 982.9
18 23.06 СЗ 3 25 км 8/1 1000 м
[Cu hum Ac und Ci fib]
+18.8 +16.6 87 +20 +21 1012.9 983.0 +27.5
21 23.06 З 3 20 км 8/1 600 м
[Cu hum Ac und Ci fib]
+17.1 +16.0 93 +17 +17 1013.9 983.8
00 24.06 СЗ 2 25 км 8/0
[Ac und]
+16.8 +16.2 96 +17 +17 1013.5 983.4
03 24.06 З 7 100 м туман ?/? +16.4 +16.2 99 +15 +15 1013.5 983.3
06 24.06 Ю 2 12 км 8/3 200 м
[Cu hum Ac und Ci fib]
+16.2 +15.7 97 +16 +17 1013.5 983.3 +16.0

 

Местоположение метеостанции Сан-Себастьян (Испания): широта 43.30 долгота -2.03 высота над уровнем моря 259 м.

В архиве по умолчанию представлена погода в Сан-Себастьяне за последнюю неделю. Архивные данные за месяц целиком и за предыдущие месяцы, начиная с января 2011 года, Вы можете получить, выбрав интересующий диапазон дат из раскрывающегося списка и нажав кнопку "Ввод!".


*Определитесь, кто Вы:
робот инопланетянин человек

Внимание! Время в таблицах - всемирное. Для получения местного времени необходимо прибавить поправку, которая равна 1 ч.

Смотрите также архив погоды в соседних городах и на ближайших метеорологических станциях:

Погода на Мысе Зумая (Испания) (18 км)
Погода Сан-Себастьян аэропорту (Испания) (19 км)
Погода в Сибуре (Франция) (30 км)
Погода в Элгойбар - Ибердрола (Испания) (32 км)
Погода в Зумаррага - Урзабалета (Испания) (34 км)
Погода на Мысе Лекейтио (Испания) (40 км)
Погода в Ирурите (Испания) (44 км)
Погода в Биаррице (Франция) (45 км)
Погода в Памплоне (Испания) (67 км)
Погода в Илундайне (Испания) (71 км)

Пояснения к столбцам:

Ветер - указаны скорость ветра в м/с - средняя за 10 мин, порывы в срок и между сроками (в фигурных скобках) и направление, откуда дует ветер: С - северный, СВ - северо-восточный, В - восточный, ЮВ - юго-восточный, Ю - южный, ЮЗ - юго-западный, З - западный, СЗ - северо-западный.
Видимость - горизонтальная дальность видимости в метрах или километрах. При видимости от 1 до 10 км при отсутствии осадков обычно наблюдается дымка, при ухудшении видимости до 1 км и менее - туман. В сухую погоду видимость может ухудшаться дымом, пылью или мглою.
Явления - указаны атмосферные явления, наблюдавшиеся в срок или в последний час перед сроком; фигурными скобками обозначены явления, наблюдавшиеся между сроками (за 1-3 часа до срока); квадратными скобками обозначены град или гололедные отложения с указанием их диаметра в мм.
Облачность - указаны через наклонную черту общая и нижняя облачность в баллах и высота нижней границы облаков в метрах; квадратными скобками обозначены формы облаков: Ci - перистые, Cs - перисто-слоистые, Cc - перисто-кучевые, Ac - высококучевые, As - высокослоистые, Sc - слоисто-кучевые, Ns - слоисто-дождевые, Cu - кучевые, Cb - кучево-дождевые. Подробнее классификацию облаков см. в Атласе облаков (PDF).
T - Температура воздуха - температура, измеренная на высоте 2 м над землей.
Td - Температура точки росы - температура, при понижении до которой содержащийся в воздухе водяной пар достигнет насыщения.
f - Относительная влажность воздуха - влажноcть воздуха, измеренная на высоте 2 м над землей.
Te - Эффективная температура - температура, которую ощущает одетый по сезону человек в тени. Характеристика душности погоды. При расчете учитывается влияние влажности воздуха и скорости ветра на теплоощущения человека.
Tes - Эффективная температура на солнце - температура, которую ощущает человек, с поправкой на солнечный нагрев. Характеристика знойности погоды. Зависит от высоты солнца над горизонтом, облачности и скорости ветра. Ночью, в пасмурную погоду, а также при ветре 12 м/с и более поправка равна нулю.
P - Атмосферное давление - приведенное к уровню моря атмосферное давление.
Po - Атмосферное давление - измеренное на уровне метеостанции атмосферное давление.
Tmin - Минимальная температура - минимум температуры воздуха на высоте 2 м над землей.
Tmax - Максимальная температура - максимум температуры воздуха на высоте 2 м над землей.
R - Количество осадков - Количество выпавших осадков за период времени, мм. При наведении курсора мыши на число - период времени, за который выпало указанное количество осадков.
R24 - Количество осадков - Количество выпавших осадков за 24 часа, мм.
S - Снежный покров - Высота снежного покрова, см. При наведении курсора мыши на число - состояние снежного покрова и степень покрытия местности в баллах.